| time (UTC) | temp C | wind direction | speed KPH | gust KPH | rain 1hr cm | rain 24hr cm | rain mn cm | humidity % | barometer mb |
| 20260504033504 | 11 | 0 | 0.0 | 0.0 | 0.00 | 0.00 | 0.00 | 99 | 1019.3 |
| 20260504033005 | 11 | 68 | 3.2 | 3.2 | 0.00 | 0.00 | 0.00 | 99 | 1019.3 |
| 20260504032504 | 11 | 68 | 3.2 | 3.2 | 0.00 | 0.00 | 0.00 | 99 | 1019.3 |
| 20260504032004 | 11 | 68 | 3.2 | 3.2 | 0.00 | 0.00 | 0.00 | 99 | 1019.3 |
| 20260504031505 | 11 | 68 | 3.2 | 3.2 | 0.00 | 0.00 | 0.00 | 99 | 1019.3 |
| 20260504031004 | 11 | 68 | 3.2 | 3.2 | 0.00 | 0.00 | 0.00 | 99 | 1019.3 |
| 20260504030504 | 11 | 68 | 3.2 | 3.2 | 0.00 | 0.00 | 0.00 | 99 | 1019.3 |
| 20260504030006 | 11 | 68 | 3.2 | 3.2 | 0.00 | 0.00 | 0.00 | 99 | 1019.3 |
| 20260504025504 | 11 | 74 | 3.2 | 4.8 | 0.00 | 0.00 | 0.00 | 99 | 1019.3 |
| 20260504025005 | 11 | 76 | 1.6 | 4.8 | 0.00 | 0.00 | 0.00 | 99 | 1019.3 |
| 20260504024504 | 11 | 0 | 0.0 | 0.0 | 0.00 | 0.00 | 0.00 | 99 | 1019.3 |
| 20260504024004 | 11 | 90 | 0.0 | 1.6 | 0.00 | 0.00 | 0.00 | 99 | 1019.3 |
| 20260504023504 | 11 | 90 | 0.0 | 1.6 | 0.00 | 0.00 | 0.00 | 99 | 1019.3 |
| 20260503202504 | 12 | 0 | 0.0 | 0.0 | 0.00 | 0.00 | 0.00 | 100 | 1018.3 |
| 20260503202004 | 12 | 0 | 0.0 | 0.0 | 0.00 | 0.00 | 0.00 | 100 | 1018.3 |
| 20260503201504 | 12 | 0 | 0.0 | 0.0 | 0.00 | 0.00 | 0.00 | 99 | 1018.3 |
| 20260503201005 | 12 | 0 | 0.0 | 0.0 | 0.00 | 0.00 | 0.00 | 99 | 1018.3 |
| 20260503200504 | 12 | 0 | 0.0 | 0.0 | 0.00 | 0.00 | 0.00 | 99 | 1018.3 |
| 20260503200006 | 12 | 0 | 0.0 | 0.0 | 0.00 | 0.00 | 0.00 | 100 | 1018.3 |
| 20260503195504 | 12 | 158 | 0.0 | 1.6 | 0.00 | 0.00 | 0.00 | 100 | 1018.3 |
| 20260503195005 | 12 | 158 | 1.6 | 3.2 | 0.00 | 0.00 | 0.00 | 100 | 1018.3 |
| 20260503194504 | 12 | 177 | 3.2 | 3.2 | 0.00 | 0.00 | 0.00 | 100 | 1018.3 |
| 20260503194004 | 13 | 193 | 3.2 | 3.2 | 0.00 | 0.00 | 0.00 | 100 | 1018.3 |
| 20260503193504 | 13 | 203 | 1.6 | 3.2 | 0.00 | 0.00 | 0.00 | 97 | 1018.3 |
| 20260503193004 | 13 | 203 | 0.0 | 1.6 | 0.00 | 0.00 | 0.00 | 97 | 1018.3 |
| 20260503192503 | 13 | 0 | 0.0 | 0.0 | 0.00 | 0.00 | 0.00 | 97 | 1018.3 |
| 20260503192004 | 13 | 0 | 0.0 | 0.0 | 0.00 | 0.00 | 0.00 | 97 | 1018.3 |
| 20260503191504 | 13 | 248 | 0.0 | 1.6 | 0.00 | 0.00 | 0.00 | 100 | 1018.3 |
| 20260503191005 | 13 | 248 | 0.0 | 1.6 | 0.00 | 0.00 | 0.00 | 97 | 1018.3 |
| 20260503190504 | 13 | 248 | 0.0 | 1.6 | 0.00 | 0.00 | 0.00 | 97 | 1018.3 |
| 20260503190006 | 13 | 203 | 1.6 | 3.2 | 0.00 | 0.00 | 0.00 | 97 | 1018.3 |
| 20260503185504 | 13 | 203 | 1.6 | 3.2 | 0.00 | 0.00 | 0.00 | 97 | 1018.3 |
| 20260503185004 | 13 | 203 | 1.6 | 3.2 | 0.00 | 0.00 | 0.00 | 97 | 1018.3 |
| 20260503184504 | 13 | 203 | 1.6 | 3.2 | 0.00 | 0.00 | 0.00 | 97 | 1018.3 |
| 20260503184005 | 13 | 225 | 0.0 | 3.2 | 0.00 | 0.00 | 0.00 | 97 | 1018.3 |
| 20260503183506 | 13 | 248 | 1.6 | 3.2 | 0.00 | 0.00 | 0.00 | 97 | 1018.3 |
| 20260503183005 | 13 | 248 | 3.2 | 4.8 | 0.00 | 0.00 | 0.00 | 97 | 1018.3 |
| 20260503182505 | 13 | 257 | 3.2 | 4.8 | 0.00 | 0.00 | 0.00 | 97 | 1018.3 |
| 20260503182006 | 13 | 282 | 1.6 | 3.2 | 0.00 | 0.00 | 0.00 | 96 | 1018.3 |
| 20260503181506 | 14 | 296 | 1.6 | 3.2 | 0.00 | 0.00 | 0.00 | 96 | 1018.3 |
| 20260503181006 | 14 | 300 | 1.6 | 3.2 | 0.00 | 0.00 | 0.00 | 96 | 1018.3 |
| 20260503180506 | 14 | 337 | 1.6 | 1.6 | 0.00 | 0.00 | 0.00 | 96 | 1018.3 |
| 20260503180007 | 14 | 0 | 0.0 | 0.0 | 0.00 | 0.00 | 0.00 | 96 | 1017.3 |
| 20260503175505 | 14 | 0 | 0.0 | 0.0 | 0.00 | 0.00 | 0.00 | 96 | 1017.3 |
| 20260503175005 | 14 | 0 | 0.0 | 0.0 | 0.00 | 0.00 | 0.00 | 96 | 1017.3 |
| 20260503174505 | 14 | 0 | 0.0 | 0.0 | 0.00 | 0.00 | 0.00 | 95 | 1017.3 |
| 20260503174005 | 15 | 0 | 0.0 | 0.0 | 0.00 | 0.00 | 0.00 | 96 | 1017.3 |
| 20260503173505 | 15 | 0 | 0.0 | 0.0 | 0.00 | 0.00 | 0.00 | 96 | 1017.3 |
| 20260503173006 | 15 | 0 | 0.0 | 0.0 | 0.00 | 0.00 | 0.00 | 96 | 1017.3 |
| 20260503172506 | 14 | 0 | 0.0 | 0.0 | 0.00 | 0.00 | 0.00 | 96 | 1017.3 |
| 20260503172006 | 14 | 0 | 0.0 | 0.0 | 0.00 | 0.00 | 0.00 | 97 | 1017.3 |
| 20260503171505 | 13 | 0 | 0.0 | 0.0 | 0.00 | 0.00 | 0.00 | 97 | 1017.3 |
| 20260503171007 | 13 | 0 | 0.0 | 0.0 | 0.00 | 0.00 | 0.00 | 97 | 1017.3 |
| 20260503170505 | 13 | 39 | 0.0 | 3.2 | 0.00 | 0.00 | 0.00 | 97 | 1017.3 |
| 20260503151006 | 13 | 257 | 6.4 | 6.4 | 0.00 | 0.00 | 0.00 | 96 | 1017.3 |
| 20260503150505 | 13 | 274 | 4.8 | 6.4 | 0.00 | 0.00 | 0.00 | 95 | 1017.3 |
| 20260503131005 | 15 | 308 | 4.8 | 6.4 | 0.00 | 0.00 | 0.00 | 88 | 1017.3 |
| 20260503130505 | 15 | 293 | 4.8 | 4.8 | 0.00 | 0.00 | 0.00 | 89 | 1017.3 |
| 20260503110505 | 16 | 123 | 6.4 | 8.0 | 0.00 | 0.00 | 0.00 | 82 | 1018.3 |
| 20260503090505 | 14 | 112 | 3.2 | 3.2 | 0.00 | 0.00 | 0.00 | 93 | 1018.3 |
| 20260503081505 | 13 | 85 | 4.8 | 6.4 | 0.00 | 0.00 | 0.00 | 100 | 1018.3 |
| 20260503081004 | 13 | 84 | 3.2 | 6.4 | 0.00 | 0.00 | 0.00 | 100 | 1018.3 |
| 20260503080504 | 13 | 97 | 3.2 | 4.8 | 0.00 | 0.00 | 0.00 | 99 | 1018.3 |
| 20260503072504 | 12 | 97 | 4.8 | 8.0 | 0.00 | 0.00 | 0.00 | 99 | 1018.3 |
| 20260503072005 | 12 | 93 | 4.8 | 6.4 | 0.00 | 0.00 | 0.00 | 99 | 1018.3 |
| 20260503071504 | 12 | 93 | 4.8 | 6.4 | 0.00 | 0.00 | 0.00 | 99 | 1018.3 |
| 20260503071005 | 12 | 90 | 4.8 | 6.4 | 0.00 | 0.00 | 0.00 | 99 | 1018.3 |
| 20260503070504 | 12 | 83 | 4.8 | 6.4 | 0.00 | 0.00 | 0.00 | 99 | 1018.3 |
| 20260503055004 | 12 | 102 | 3.2 | 4.8 | 0.00 | 0.00 | 0.00 | 99 | 1017.3 |
| 20260503054504 | 11 | 94 | 3.2 | 4.8 | 0.00 | 0.00 | 0.00 | 99 | 1017.3 |
| 20260503054004 | 11 | 90 | 4.8 | 4.8 | 0.00 | 0.00 | 0.00 | 99 | 1017.3 |
| 20260503053504 | 11 | 95 | 4.8 | 4.8 | 0.00 | 0.00 | 0.00 | 99 | 1017.3 |
| 20260503053004 | 11 | 84 | 4.8 | 4.8 | 0.00 | 0.00 | 0.00 | 99 | 1017.3 |
| 20260503052504 | 12 | 79 | 3.2 | 4.8 | 0.00 | 0.00 | 0.00 | 99 | 1017.3 |
| 20260503052004 | 12 | 85 | 3.2 | 4.8 | 0.00 | 0.00 | 0.00 | 99 | 1017.3 |
| 20260503051504 | 12 | 82 | 3.2 | 4.8 | 0.00 | 0.00 | 0.00 | 99 | 1017.3 |
| 20260503051004 | 12 | 77 | 4.8 | 4.8 | 0.00 | 0.00 | 0.00 | 99 | 1017.3 |
| 20260503050504 | 12 | 83 | 4.8 | 6.4 | 0.00 | 0.00 | 0.00 | 99 | 1017.3 |
| 20260503050006 | 12 | 94 | 3.2 | 6.4 | 0.00 | 0.00 | 0.00 | 99 | 1017.3 |
| 20260503045504 | 12 | 100 | 1.6 | 3.2 | 0.00 | 0.00 | 0.00 | 99 | 1017.3 |
| 20260503045004 | 12 | 91 | 1.6 | 3.2 | 0.00 | 0.00 | 0.00 | 99 | 1017.3 |
| 20260503044505 | 12 | 86 | 3.2 | 3.2 | 0.00 | 0.00 | 0.00 | 99 | 1017.3 |
| 20260503044005 | 12 | 88 | 1.6 | 3.2 | 0.00 | 0.00 | 0.00 | 99 | 1017.3 |
| 20260503043504 | 12 | 84 | 1.6 | 3.2 | 0.00 | 0.00 | 0.00 | 99 | 1017.3 |
| 20260503043004 | 12 | 78 | 1.6 | 3.2 | 0.00 | 0.00 | 0.00 | 99 | 1017.3 |
| 20260503042504 | 12 | 81 | 3.2 | 3.2 | 0.00 | 0.00 | 0.00 | 99 | 1017.3 |
| 20260503042004 | 12 | 87 | 3.2 | 4.8 | 0.00 | 0.00 | 0.00 | 99 | 1017.3 |
| 20260503041504 | 12 | 91 | 3.2 | 4.8 | 0.00 | 0.00 | 0.00 | 99 | 1018.3 |
| 20260503041004 | 12 | 84 | 3.2 | 3.2 | 0.00 | 0.00 | 0.00 | 99 | 1018.3 |
| 20260503040505 | 12 | 81 | 1.6 | 3.2 | 0.00 | 0.00 | 0.00 | 99 | 1018.3 |
| 20260503040006 | 12 | 78 | 1.6 | 3.2 | 0.00 | 0.00 | 0.00 | 99 | 1018.3 |
| 20260503035504 | 12 | 81 | 1.6 | 3.2 | 0.00 | 0.00 | 0.00 | 99 | 1018.3 |
| 20260503035004 | 12 | 0 | 0.0 | 0.0 | 0.00 | 0.00 | 0.00 | 99 | 1018.3 |
| 20260503034504 | 12 | 0 | 0.0 | 0.0 | 0.00 | 0.00 | 0.00 | 99 | 1018.3 |
| 20260503034004 | 12 | 0 | 0.0 | 0.0 | 0.00 | 0.00 | 0.00 | 99 | 1018.3 |